Location: Augustenthal
(51.7167°N, 10.2833°E)
Time: 20:06:33
(UTC+00:00)

Meteor 2-4 Rocket - Pass Details

Date: 18 May 2021
Orbit: 799 x 909 km, 81.2° (Epoch: 20 June)

Event Time Altitude Azimuth Distance (km) Brightness Sun altitude
Exits shadow 21:28:22 22° 162° (SSE) 1,791 4.8 -14.8°
Maximum altitude 21:31:51 52° 95° (E) 1,049 4.0 -15.0°
Drops below altitude 10° 21:37:11 10° 21° (NNE) 2,443 6.8 -15.4°
Sets 21:39:37 0° 17° (NNE) 3,366 7.7 -15.5°
